Torna al catalogo

STARLINK-11307

AttivoComunicazioniVLEO
NORAD 61210·PAYLOAD·🇺🇸 United States

Lanciato Sep 20, 2024 da Vandenberg Space Force Base

Loading…

Prossimi Passaggi (prossime 24 ore)

TLE

AggiornatoSource: CelesTrak SupGP

Epoca: Sep 14, 2026, 22:50 UTC

1 61210C 24171L   26257.95187500 -.00039868  00000+0 -32839-3 0  2572
2 61210  53.1567 323.6223 0001101  82.9347 132.9293 15.69730342    16

Traccia STARLINK-11307 in tempo reale con AllMySat

Download on the App Store